User: anonymous   Login
Location: Cherry Road
(34.5193°N, 112.0852°W)
Time: 19:15:33
(UTC-07:00)
Language:

Hubble Space Telescope - Orbit

View from above orbital plane
View from above orbital plane
View from above satellite
View from above satellite

Ground track
Ground track

The orbit data is extracted from the following two-line orbital elements,

1 20580U 90037B   14352.49090278  .00004930  00000-0  31442-3 0  1814
2 20580 028.4707 264.8553 0003138 095.7232 241.2353 15.06445853152527
Epoch (UTC): 18 December 2014 11:46:54
Eccentricity: 0.0003138
inclination: 28.4707°
perigee height: 545 km
apogee height: 549 km
right ascension of ascending node: 264.8553°
argument of perigee: 95.7232°
revolutions per day: 15.06445853
mean anomaly at epoch: 241.2353°
orbit number at epoch: 15252

The dashed part of the orbit path shows where the satellite is in the earth's shadow,  

DLR